Wind_Speed
18 18 18 17 16 16 15 15 15 15 15 15 15 15 14 14 13 13 12 12 11 11 10 10 10 10 10 10 10 9 9 9 9 9 9 9 9 8 8 8 8 8 8 8 7 8 8 8 8 8 7 6 6 7 7 7 8 8 8 8 8 8 9 9 10 11 11 11 11 12 12 13 14 14 14 14 14 14 14 15 15 14 14 15 16
17 17 17 18 19 18 17 17 17 16 17 17 17 17 16 15 15 14 14 14 14 14 13 12 12 12 12 12 12 11 11 11 11 11 11 11 11 10 10 10 10 10 10 10 10 10 10 10 10 10 9 9 8 8 8 8 8 8 9 9 9 9 10 10 11 12 12 13 13 13 13 13 14 13 13 13 13 14 14 15 15 16 16 15 15
17 16 15 17 18 17 16 17 18 17 17 18 18 19 19 18 17 16 15 16 16 16 15 14 14 13 13 14 14 13 13 13 13 13 13 13 13 12 12 12 12 12 12 12 11 11 11 11 11 11 11 11 11 10 10 10 9 9 10 10 10 11 11 11 12 13 14 14 14 14 15 15 15 14 13 13 14 14 15 15 16 16 18 18 17
18 16 16 17 17 15 14 15 16 16 16 16 17 19 19 19 18 18 17 17 18 18 17 16 16 16 15 15 15 15 15 15 15 15 14 15 15 15 14 14 14 14 14 14 14 13 13 13 13 13 13 13 14 13 12 13 12 11 11 11 11 12 11 12 14 14 14 15 15 15 17 18 18 16 14 13 14 15 15 16 17 17 18 20 19
18 18 19 20 18 15 16 16 15 15 16 16 17 18 18 17 17 18 17 18 18 19 19 18 18 17 17 17 16 16 16 16 16 16 17 17 17 17 16 15 15 16 16 16 17 16 15 15 15 14 14 15 16 15 15 15 15 13 13 12 12 12 12 14 15 14 14 16 16 17 17 18 19 19 18 16 16 17 17 17 18 18 19 20 21
20 20 21 21 19 17 17 18 17 17 18 18 19 19 18 17 17 17 18 18 17 17 18 19 19 19 19 19 18 18 17 16 17 17 18 18 19 18 17 17 17 17 17 18 18 18 19 18 17 16 16 17 16 16 17 17 17 17 16 15 14 13 13 15 15 14 14 15 17 18 19 19 20 21 21 20 20 20 21 19 19 20 20 21 23
23 22 20 21 22 21 20 20 19 19 19 20 21 21 20 20 20 21 21 20 19 17 17 18 19 20 21 21 21 20 17 17 18 19 19 20 20 19 18 18 19 19 19 20 19 19 20 20 19 18 19 19 18 18 19 18 19 19 18 18 18 16 15 15 16 16 15 16 18 20 21 21 22 22 23 24 23 23 23 22 21 22 21 20 22
22 21 20 21 23 23 22 21 20 19 20 21 22 22 22 23 23 24 24 23 22 21 19 19 20 21 22 22 21 19 18 18 19 20 21 22 22 21 20 20 20 21 21 21 20 21 21 21 21 20 20 21 21 20 20 20 21 21 20 20 21 21 19 18 18 18 18 18 21 22 22 23 25 25 25 26 25 25 24 23 22 24 23 22 23
22 22 22 23 23 23 22 21 21 20 20 21 22 23 24 24 25 26 26 25 24 24 24 23 22 22 23 23 20 17 17 20 21 22 22 22 22 23 23 22 22 22 22 22 23 23 22 22 23 23 23 23 23 22 22 22 23 23 22 23 24 24 24 22 21 21 21 22 23 24 24 26 28 27 26 27 26 26 26 24 23 23 24 24 25
23 24 24 23 23 23 22 22 23 21 21 23 23 24 24 25 26 27 27 26 25 26 28 28 26 25 24 23 22 20 19 21 23 25 25 24 23 24 25 25 25 25 25 25 24 24 24 24 26 26 25 24 24 25 24 24 25 24 24 25 25 26 27 26 25 24 24 24 25 27 27 27 30 30 28 27 26 26 27 26 24 24 24 26 27
26 25 23 22 24 24 23 23 24 23 23 24 24 25 25 25 27 28 29 28 27 27 30 31 31 29 27 25 25 24 23 23 25 26 27 26 25 25 26 27 27 27 27 26 26 26 26 26 26 27 26 25 26 27 27 27 27 27 27 27 27 28 28 29 29 28 27 26 26 28 28 29 31 32 31 29 28 27 28 27 26 25 25 26 28
27 26 24 24 25 25 25 25 25 25 25 25 25 26 27 27 29 30 30 30 30 30 31 32 32 31 29 29 29 28 28 27 26 27 27 27 27 27 28 29 29 30 29 28 29 30 29 28 27 27 27 27 28 29 30 30 30 29 29 29 30 30 30 31 32 32 30 29 28 28 29 29 31 33 34 32 30 29 29 30 30 29 27 28 29
29 28 26 26 27 27 27 27 27 27 27 28 28 27 29 30 32 34 33 31 31 33 34 35 35 32 31 31 32 31 31 30 30 29 28 28 29 29 29 30 31 31 30 30 32 32 31 30 30 30 30 29 30 31 31 32 33 32 31 32 33 33 32 33 34 34 33 32 30 29 30 31 31 33 36 36 34 33 32 32 33 33 31 30 30
32 31 29 28 28 29 28 28 28 29 29 30 30 29 30 31 32 33 33 31 31 34 37 38 37 35 33 33 33 33 33 33 32 31 30 29 29 30 31 31 32 32 32 32 33 33 33 33 34 35 34 33 33 33 33 33 34 35 35 36 37 36 34 34 36 36 35 33 31 30 31 32 33 34 36 38 37 36 35 35 35 36 36 34 35
34 35 33 31 30 31 31 31 29 28 29 29 28 28 29 29 30 30 29 28 30 32 35 38 39 38 36 34 33 34 35 34 33 32 32 32 31 31 32 32 31 32 32 33 33 34 35 35 36 37 37 37 36 36 36 34 34 36 37 38 39 38 37 38 39 38 37 35 34 33 33 34 35 35 37 38 38 38 37 37 37 38 38 38 39
31 35 35 34 31 30 33 34 29 23 23 24 24 25 25 25 27 27 25 24 27 28 30 33 37 39 38 36 36 37 37 36 34 33 34 33 33 33 33 33 32 32 33 34 35 36 36 37 37 38 39 39 39 38 37 37 37 38 38 38 38 38 40 41 42 41 40 38 37 37 36 36 37 37 38 39 39 39 38 37 37 37 38 38 39
21 27 32 34 32 29 31 33 30 24 21 20 19 20 21 21 23 24 22 20 21 24 27 31 36 40 39 37 37 38 39 38 37 36 35 34 34 34 34 33 32 33 34 36 38 38 38 38 40 41 41 41 42 42 41 41 41 42 41 40 40 40 41 42 42 42 42 41 41 41 40 39 38 38 39 40 40 41 40 38 37 38 38 37 38
15 17 20 22 23 22 23 25 26 24 22 20 18 19 20 20 21 22 21 20 19 19 20 23 29 35 38 40 40 41 40 38 36 37 37 37 37 37 36 35 36 37 38 38 40 41 40 41 43 44 43 42 43 44 44 45 45 45 44 42 41 41 42 43 42 42 42 42 42 42 43 42 41 40 40 40 40 41 40 39 38 38 38 38 38
17 16 15 14 13 13 15 16 18 20 19 18 17 18 18 19 20 20 19 18 17 15 14 16 19 21 24 30 35 37 36 35 36 38 38 38 39 38 37 37 37 39 40 40 41 42 43 45 45 45 44 44 44 43 44 46 46 46 46 44 43 43 44 44 44 43 43 43 43 43 43 44 43 43 43 43 42 42 41 41 40 39 38 39 39
20 19 19 18 17 15 14 15 16 17 16 16 16 15 15 18 21 22 19 19 20 20 19 21 23 21 18 18 19 20 22 25 29 34 37 39 40 40 39 38 37 37 38 39 40 42 44 45 46 45 45 46 47 47 46 47 47 47 47 46 45 46 46 46 45 45 44 43 43 44 44 45 45 45 45 46 46 45 43 43 43 41 37 38 39
20 19 19 19 19 19 18 17 17 17 17 17 16 16 17 20 23 24 23 23 25 26 24 24 23 22 19 17 16 16 17 18 20 23 26 30 33 36 39 41 43 44 44 43 42 43 43 44 46 47 47 45 45 46 47 48 48 47 45 45 46 46 47 47 47 47 46 46 45 45 46 47 47 48 48 48 48 47 46 45 44 43 40 39 40
19 19 19 18 18 18 18 18 18 18 18 18 18 19 20 22 23 23 23 23 23 24 24 22 21 20 19 17 16 16 17 18 19 19 20 21 23 25 27 31 35 39 44 46 45 43 42 42 44 47 48 47 45 45 47 48 49 47 45 46 46 47 47 48 49 49 49 49 49 48 49 49 49 50 50 50 50 49 48 47 46 45 45 45 44
18 19 19 19 18 18 19 19 20 20 20 21 21 21 21 22 23 23 23 22 21 20 20 20 20 20 19 18 18 18 18 19 20 20 21 22 23 23 24 25 26 27 31 36 39 40 40 42 43 45 48 49 48 47 47 48 49 49 48 48 47 47 48 49 50 51 52 52 52 52 52 51 51 51 51 51 50 50 49 48 46 45 45 46 45
19 19 19 20 19 19 20 20 20 21 22 23 23 23 24 24 24 24 24 23 22 21 20 20 20 20 20 19 19 19 19 20 20 21 23 23 25 26 26 27 26 25 25 27 30 33 34 36 38 41 44 47 49 50 49 48 48 49 49 49 49 50 50 50 49 50 51 52 53 53 53 53 53 53 52 51 50 50 50 48 47 46 45 44 44
20 20 20 20 20 20 21 21 21 22 23 24 24 25 25 25 25 25 25 24 24 23 22 22 21 21 21 21 21 20 20 20 21 22 24 25 26 27 28 29 29 28 27 27 28 30 31 32 33 35 37 40 42 44 45 45 45 46 48 49 49 50 49 48 46 46 47 49 50 51 52 53 53 53 52 51 50 50 50 49 47 46 45 44 44
21 21 21 21 21 21 22 22 22 23 24 25 25 26 26 26 25 25 25 25 25 24 24 24 23 24 24 24 24 24 23 23 22 23 24 26 27 29 30 31 31 31 31 32 32 33 34 34 35 35 36 36 36 36 37 38 39 40 41 42 42 42 42 42 42 42 43 45 46 48 50 51 53 52 51 51 51 50 50 49 48 46 45 44 44
24 23 23 22 22 22 23 23 23 24 25 26 26 26 26 26 26 26 26 26 26 26 26 26 26 27 27 27 27 27 27 27 27 26 26 27 29 30 31 32 33 34 35 35 35 36 36 37 38 39 39 39 39 39 38 38 39 40 40 40 41 42 42 42 42 42 42 42 43 44 45 47 48 49 49 50 50 49 49 49 49 48 47 46 46
27 26 25 25 24 24 24 24 25 25 25 26 26 26 27 26 26 26 27 27 28 29 29 29 29 29 29 30 30 30 30 30 30 30 30 30 30 31 32 33 35 36 37 37 38 38 39 39 40 40 41 42 42 42 42 42 42 42 42 42 42 43 45 45 45 45 45 45 45 45 45 46 46 47 48 48 49 49 49 49 49 49 49 49 49
28 28 28 27 27 27 27 27 27 27 27 27 27 28 28 28 28 28 29 29 30 30 31 31 31 32 32 32 32 31 31 31 31 31 32 32 33 33 34 35 36 37 38 39 39 40 40 40 41 41 42 42 43 43 44 44 44 44 44 44 43 43 43 45 46 46 47 47 48 48 49 49 50 49 50 50 51 51 52 52 52 52 52 52 52
28 28 29 29 28 28 28 29 29 29 29 29 29 30 30 30 31 31 31 31 32 32 32 33 33 33 33 33 32 32 32 32 32 32 33 33 34 34 35 36 37 38 39 39 40 41 41 42 43 43 43 43 44 45 46 46 46 47 47 47 47 46 45 45 46 47 47 48 49 50 51 52 52 53 53 54 54 54 55 55 55 55 55 55 56
30 29 29 29 29 29 29 30 30 30 31 31 31 31 31 32 32 32 32 32 32 32 32 33 33 33 33 33 33 33 33 33 34 34 34 35 35 36 36 37 38 38 39 40 41 42 42 43 44 45 45 45 45 46 47 48 49 49 49 50 50 50 50 49 49 49 49 50 50 51 52 53 54 55 56 56 57 57 57 58 58 58 58 58 59
31 30 30 30 30 31 31 31 31 32 32 32 32 32 31 31 32 32 32 32 32 32 32 32 32 32 33 33 34 34 34 34 34 35 35 35 36 37 37 38 39 39 40 41 41 42 42 43 44 45 46 46 46 47 48 49 50 50 50 51 52 53 53 52 52 52 52 52 52 52 53 54 55 56 57 58 59 59 60 60 61 61 60 61 61
31 31 31 31 31 32 32 32 32 32 32 32 32 32 32 31 32 32 31 31 31 32 32 32 32 33 33 33 34 34 35 35 35 35 36 35 35 36 36 37 38 39 39 40 41 41 42 43 44 45 46 46 47 47 48 49 50 51 51 51 52 53 54 54 54 54 54 54 54 54 54 54 55 56 56 57 59 60 61 62 62 63 63 63 63
31 31 30 30 30 31 31 31 31 31 32 32 32 32 32 32 32 32 32 32 32 32 32 33 33 33 33 34 34 34 35 35 35 35 35 35 35 35 35 35 36 36 37 38 39 40 41 42 43 44 44 45 46 47 47 48 49 50 51 52 52 52 53 54 55 55 56 55 55 55 56 56 56 56 56 57 57 58 60 61 62 62 63 64 64
28 29 29 29 29 29 29 29 29 29 30 30 31 31 31 32 32 32 33 33 33 33 33 33 33 32 33 33 33 33 34 34 34 34 34 34 34 34 35 35 36 36 38 39 39 40 41 42 43 44 45 46 47 48 49 50 50 51 52 53 53 53 53 54 55 56 57 57 57 57 58 58 58 58 59 59 59 59 59 60 61 61 62 63 64
27 26 26 27 27 28 27 28 28 29 29 29 30 30 30 30 31 32 32 32 32 32 33 33 34 33 33 33 33 33 34 34 34 35 35 36 36 36 37 38 38 39 40 42 43 43 44 45 46 47 47 47 49 50 51 52 53 53 55 55 55 55 56 57 57 57 59 59 60 60 61 62 62 62 63 63 63 63 63 63 63 63 63 63 63
26 25 25 25 26 26 26 26 27 27 28 28 29 29 30 30 30 31 31 32 32 32 32 33 34 34 34 34 35 35 36 37 37 37 38 38 39 39 39 40 41 42 43 44 45 46 47 49 50 50 50 50 52 54 54 54 54 55 56 57 57 58 59 60 61 61 62 63 63 63 64 65 66 66 67 67 67 68 68 67 67 67 67 67 66
24 24 24 24 24 25 25 25 26 26 27 28 28 29 30 30 30 31 32 32 32 32 32 33 33 33 34 35 36 37 38 39 40 40 40 40 41 41 42 43 44 45 46 47 48 49 50 52 53 54 54 54 55 57 58 58 58 59 59 58 59 60 61 61 62 63 64 65 66 67 68 69 70 70 71 71 71 72 72 72 71 71 71 70 69
22 22 23 23 24 24 25 25 26 26 27 28 29 30 31 31 32 32 33 33 34 34 34 35 35 35 36 37 37 39 40 41 42 43 43 43 43 45 46 47 48 49 50 51 51 53 54 55 56 56 56 57 58 59 61 61 62 62 62 62 62 63 64 64 64 65 66 66 67 69 70 71 72 73 74 74 75 75 75 75 75 74 74 73 72
20 21 22 23 23 24 25 26 27 28 29 30 31 32 33 33 34 34 35 35 36 37 38 39 38 38 39 41 42 43 44 45 46 47 47 47 47 48 50 51 51 52 53 54 54 55 56 57 58 58 58 58 59 61 62 63 64 65 65 65 65 66 67 67 67 67 68 68 68 69 69 70 71 72 73 74 75 76 76 76 77 77 76 76 75
21 21 23 24 25 27 28 29 29 30 31 32 33 34 35 35 36 36 37 38 39 41 42 43 43 43 43 44 45 46 46 47 48 49 50 51 52 52 53 54 54 55 56 56 56 56 57 59 60 60 60 60 61 61 62 64 65 66 66 66 67 67 68 68 69 69 69 70 70 70 70 70 70 69 70 70 71 72 73 74 75 76 76 76 76
23 24 25 26 27 28 29 30 30 31 32 32 33 34 35 36 37 38 39 41 42 42 43 44 44 43 44 45 46 47 48 49 50 51 52 54 54 55 56 57 57 57 58 58 58 58 59 60 61 61 61 62 62 62 62 63 64 65 65 65 65 66 66 66 66 66 67 68 68 69 70 70 70 70 70 70 70 70 70 71 71 72 73 74 74
24 25 25 25 26 27 28 29 30 31 31 32 33 35 36 37 38 39 39 40 41 41 42 44 44 44 45 46 48 49 50 51 52 53 54 55 56 56 57 58 58 58 59 60 60 61 61 62 62 62 62 62 61 61 61 61 62 62 62 62 62 62 62 62 62 62 62 63 63 63 64 65 66 66 67 68 69 70 70 71 71 71 70 70 70
23 24 25 25 26 27 28 30 31 32 33 34 35 36 37 38 38 39 39 40 41 42 44 45 46 46 47 48 49 50 51 52 53 54 55 56 56 57 58 58 58 59 60 61 61 62 62 62 62 62 61 61 60 60 60 61 61 60 60 59 59 58 59 59 59 60 59 59 59 59 59 60 60 60 61 62 62 63 64 65 66 66 66 66 66
24 25 26 27 28 29 30 32 33 35 36 36 37 38 38 38 39 40 41 42 43 45 46 47 47 47 48 49 50 51 52 53 54 55 56 57 58 59 59 59 59 60 61 61 61 60 60 60 60 59 59 59 59 59 59 60 60 59 59 58 59 59 58 58 59 59 59 58 58 58 58 57 57 56 56 56 55 56 56 57 58 58 59 60 60
26 28 29 30 31 32 33 34 35 36 36 37 38 38 39 40 41 42 43 44 45 46 47 47 48 49 50 51 52 53 54 55 56 57 57 58 59 59 59 59 59 59 59 59 59 59 59 58 58 57 57 57 57 57 58 58 58 57 57 58 59 59 59 58 58 59 59 59 59 59 58 58 57 56 55 54 54 54 54 54 54 54 54 55 55
30 31 32 33 34 34 35 35 35 36 36 37 38 39 40 42 43 44 44 45 46 47 48 49 51 52 53 53 54 55 56 56 56 57 57 58 57 57 57 57 58 58 58 57 58 58 57 57 56 56 56 56 56 56 57 57 56 56 57 58 58 58 59 59 59 59 59 60 59 59 59 58 58 57 57 56 55 54 54 53 52 52 51 51 51
32 33 34 34 35 36 36 36 36 36 37 38 40 41 42 43 44 45 46 47 48 49 50 51 52 53 54 54 55 55 55 55 55 56 56 56 56 56 56 56 57 57 57 57 58 58 57 56 56 56 56 56 56 57 57 57 56 57 58 59 59 59 59 60 60 60 60 60 60 59 59 59 58 58 57 56 55 54 53 52 50 50 49 49 49
34 35 36 36 35 35 36 36 37 38 39 40 41 42 43 44 45 46 47 48 49 50 51 52 52 53 54 54 55 54 54 54 55 55 56 56 56 56 56 56 56 56 56 56 57 57 57 57 57 57 57 57 58 58 58 58 58 59 59 59 59 59 59 59 59 59 59 59 59 59 58 58 57 56 56 54 53 52 50 49 48 48 48 47 48
35 36 36 36 36 36 36 38 39 40 41 42 43 43 44 45 46 47 48 49 50 50 51 52 53 53 53 53 53 53 53 54 55 55 55 55 56 56 56 55 56 55 55 55 56 57 58 58 58 58 59 59 60 60 60 60 60 60 60 60 59 59 59 58 58 57 57 56 56 56 55 55 54 53 52 51 50 49 48 47 46 46 46 46 47
35 35 35 36 37 38 39 40 41 41 42 42 43 44 45 46 47 48 49 50 50 50 51 52 52 52 52 52 53 53 54 54 54 55 55 55 55 54 55 55 55 55 55 55 56 57 58 59 59 60 60 60 61 61 60 60 60 59 59 58 57 56 56 55 54 53 53 52 52 51 51 51 50 49 48 47 46 45 44 44 44 43 44 44 44
Wind_Direction
243 243 241 240 239 240 242 241 243 245 247 250 252 252 252 254 258 261 263 264 264 264 261 258 259 259 259 259 260 260 262 262 262 262 261 260 261 263 264 265 267 270 275 278 280 284 286 288 290 292 294 296 293 290 287 284 283 283 283 279 277 278 280 281 285 287 286 285 284 284 287 291 294 295 298 302 305 309 310 313 315 317 319 322 323
242 244 248 247 241 238 241 243 244 247 250 252 254 256 256 256 258 261 265 266 267 267 264 262 261 261 260 261 261 261 262 263 263 263 262 262 260 261 262 264 266 269 273 274 274 276 279 281 283 285 288 287 285 283 281 278 279 281 279 274 270 270 272 276 280 281 281 279 277 277 279 281 284 288 292 297 302 305 309 313 316 316 317 318 320
240 241 247 250 248 245 244 245 247 250 253 256 257 258 259 259 260 262 263 265 266 267 267 266 266 265 264 265 266 265 263 263 264 263 264 266 264 262 261 262 264 264 267 269 269 271 274 276 278 281 282 283 281 281 280 278 277 277 277 278 276 274 275 277 278 280 282 282 282 284 285 284 282 283 287 292 296 300 304 308 309 312 314 315 317
237 240 242 245 252 259 254 250 254 256 258 265 269 268 266 266 266 264 263 264 265 266 267 266 266 266 265 264 266 267 264 264 266 266 266 267 267 264 262 264 267 267 266 268 268 268 269 271 275 278 282 285 284 282 282 281 278 275 275 280 283 284 285 281 280 284 287 288 291 294 294 294 291 287 286 287 290 294 298 303 307 311 313 313 314
235 238 242 242 246 255 255 253 259 262 259 265 271 270 268 270 276 276 273 271 269 267 266 265 265 266 266 264 264 264 264 265 267 268 267 266 265 266 267 268 269 270 272 272 273 272 270 269 272 277 282 284 284 285 285 283 281 279 275 273 273 277 281 279 281 286 286 286 290 291 292 295 295 293 292 290 290 291 293 297 304 308 309 309 309
239 238 242 245 246 249 254 255 257 258 257 260 263 264 266 268 273 276 275 274 272 271 270 268 266 264 263 263 262 262 264 268 269 269 267 265 262 262 264 264 263 267 270 270 272 275 275 274 276 279 279 277 278 281 283 281 282 283 281 278 274 274 277 278 281 283 281 282 286 287 288 290 290 291 292 292 291 292 294 297 300 302 304 305 304
242 241 241 244 245 244 247 251 252 253 256 259 260 265 270 269 268 270 271 272 273 273 273 273 271 267 264 261 259 260 263 264 266 269 268 266 264 261 260 261 263 265 266 266 268 272 274 274 277 279 279 279 280 280 280 281 283 283 283 284 282 279 278 278 279 280 279 280 284 285 286 287 287 287 290 292 291 291 294 297 298 300 302 303 301
237 240 240 243 245 245 247 251 253 252 252 254 256 259 263 265 266 268 270 272 273 271 269 269 271 272 270 266 264 267 268 264 263 266 267 266 267 266 264 264 265 266 266 267 269 269 270 272 274 274 273 275 279 278 278 281 282 281 281 283 282 282 282 281 279 280 279 278 280 282 284 285 284 284 287 290 290 291 292 292 293 296 299 298 295
233 234 235 240 243 243 247 251 253 252 250 251 253 254 256 259 262 265 266 268 268 267 268 267 267 269 269 268 267 266 267 266 262 260 261 264 267 269 269 268 266 266 266 267 268 269 271 271 273 273 270 269 272 274 274 276 277 277 278 279 280 281 282 281 279 278 278 277 277 278 280 282 282 280 281 284 286 289 289 288 288 289 290 291 290
237 234 231 235 239 241 244 248 250 250 249 249 251 251 252 253 257 263 267 268 266 266 268 267 264 262 261 264 266 261 254 256 258 257 257 260 262 263 265 266 266 267 266 266 268 271 272 270 271 274 272 268 270 271 271 271 272 272 272 272 273 277 279 279 277 276 275 276 277 278 279 280 280 279 278 278 281 284 284 285 286 286 286 287 287
241 240 236 237 241 242 243 246 248 249 250 252 254 255 255 255 257 263 268 268 266 266 267 265 263 262 260 264 270 268 259 254 256 257 257 258 258 258 259 261 264 266 267 268 269 270 271 272 272 273 272 272 274 274 272 272 271 271 272 271 269 271 275 277 277 275 275 275 277 279 280 280 280 280 279 277 278 281 283 283 284 285 285 286 287
242 244 243 243 244 244 245 249 254 254 255 258 259 261 261 259 260 263 266 268 268 267 267 267 266 264 263 264 265 266 264 262 260 257 256 256 257 258 257 258 261 263 264 266 267 268 270 272 272 269 268 271 275 274 273 273 272 272 273 273 271 271 274 276 277 277 276 276 276 277 277 276 278 280 280 279 279 280 281 281 283 284 284 285 287
245 245 244 243 246 250 250 253 257 259 261 261 261 263 263 260 261 264 265 266 267 267 268 269 269 266 264 264 263 263 264 266 265 261 257 255 256 258 259 260 261 262 262 263 265 267 269 270 270 268 267 269 271 271 271 272 272 271 272 275 276 275 274 273 274 275 276 277 277 276 275 274 274 277 279 280 280 280 279 279 280 283 284 284 287
247 247 245 242 245 249 251 254 256 258 260 260 260 261 261 260 261 265 267 267 265 264 263 264 267 267 264 262 262 263 263 264 266 265 262 260 260 261 262 262 262 263 263 264 266 268 268 267 267 268 268 270 271 271 272 273 273 272 271 274 277 277 276 275 274 273 274 276 278 277 277 276 276 276 277 279 281 281 280 279 279 281 283 284 286
250 251 252 250 247 245 246 253 259 259 259 261 263 262 260 260 262 265 268 268 266 264 261 258 260 263 262 261 262 263 264 263 264 264 263 264 264 263 263 262 263 265 266 266 267 268 268 267 267 266 265 267 270 271 271 271 271 271 270 273 276 277 277 277 276 275 274 275 276 275 276 278 278 278 277 279 281 281 281 281 281 281 282 282 284
256 255 256 256 253 248 245 249 256 258 258 260 265 265 263 263 266 267 270 269 268 266 261 256 255 257 258 259 260 261 263 264 263 262 262 263 264 264 264 264 264 265 266 266 265 266 267 268 268 265 264 264 266 268 269 269 269 269 270 273 275 275 275 276 276 277 277 276 275 274 275 276 278 279 279 279 280 280 281 282 283 283 283 283 282
273 260 254 251 252 251 249 250 254 259 258 257 260 263 263 264 266 269 274 277 276 271 261 252 251 252 253 256 259 260 261 264 264 263 263 265 266 266 266 267 267 267 266 266 266 266 267 270 269 267 266 266 267 267 269 270 269 269 270 273 275 275 275 275 276 277 277 277 277 277 276 276 277 277 277 278 280 282 283 283 283 283 284 283 283
285 269 255 248 247 249 250 252 256 260 262 264 266 268 268 267 267 270 276 279 279 276 269 258 254 253 253 254 257 259 261 263 266 265 264 265 265 265 268 270 270 269 267 267 267 267 266 267 268 267 266 267 268 267 268 270 270 270 270 271 274 275 275 275 276 277 276 276 276 276 277 277 277 276 275 276 280 283 284 284 283 281 281 282 282
282 278 271 264 261 259 258 259 259 259 262 268 273 275 277 278 277 278 281 282 281 283 290 290 285 281 271 261 259 262 263 263 263 264 264 264 264 265 269 271 270 269 267 266 268 270 268 266 266 267 266 267 269 269 268 269 270 271 271 271 273 275 275 275 275 275 275 275 275 275 275 276 276 276 275 276 279 281 282 284 283 282 282 282 280
289 287 282 278 278 278 278 276 273 271 271 275 278 279 276 273 276 281 283 284 286 290 297 301 303 308 307 292 280 279 276 272 270 269 269 268 266 265 267 267 268 270 270 269 271 272 271 267 265 267 269 270 271 272 271 270 271 274 274 273 273 273 274 275 275 274 273 273 273 273 273 273 274 274 275 276 277 279 280 281 281 282 282 281 279
294 294 291 286 282 281 282 283 283 283 282 281 281 279 272 269 276 284 287 286 288 292 297 302 304 306 309 307 304 301 296 292 290 285 281 277 273 270 269 266 268 271 272 272 274 274 272 268 265 265 268 271 272 272 272 271 271 273 274 274 273 273 273 274 276 276 275 274 274 274 273 273 273 274 275 276 277 278 278 278 278 277 275 274 274
289 288 287 286 283 280 278 277 277 279 278 277 275 274 274 275 279 285 289 292 294 295 297 299 299 299 300 300 299 296 292 290 290 289 289 288 285 283 281 277 275 274 271 271 273 272 271 270 268 264 264 267 272 275 274 271 269 270 273 275 275 275 274 274 275 276 277 277 277 277 276 276 276 276 276 277 276 276 275 275 274 274 272 271 270
280 279 278 278 277 275 273 271 271 271 270 270 271 271 272 275 277 280 284 287 290 291 291 291 290 290 290 290 289 288 286 284 284 283 282 283 283 284 286 287 288 285 279 275 273 272 272 273 273 270 267 268 271 274 277 275 271 269 272 275 275 275 276 276 275 275 276 277 278 279 280 280 279 279 279 279 278 277 276 275 274 272 271 271 270
269 270 270 271 270 269 268 267 267 267 267 267 268 269 270 272 273 275 277 279 280 280 280 281 281 282 284 285 285 285 284 282 280 278 278 278 279 280 281 282 283 285 284 281 278 277 277 277 277 276 274 273 272 273 275 277 275 272 273 275 276 277 279 279 277 276 276 277 278 279 279 279 279 279 280 279 279 278 277 276 275 273 271 270 270
263 263 263 264 264 264 264 264 264 264 264 265 266 268 269 271 272 272 273 275 276 277 277 277 277 278 278 279 279 279 279 278 276 276 275 275 275 276 276 276 276 276 276 276 276 277 278 279 279 279 278 278 277 276 276 276 276 275 276 277 279 280 280 280 279 279 279 278 279 278 277 277 276 276 276 276 276 276 275 275 274 273 272 271 270
260 261 260 260 260 260 260 261 260 259 261 263 265 266 267 267 269 271 273 274 275 276 277 278 278 278 278 277 276 274 274 274 274 273 272 271 271 271 272 273 274 274 274 274 274 274 275 276 277 278 279 280 281 281 280 278 277 277 277 278 280 281 281 281 281 280 280 280 279 278 277 276 276 275 274 274 274 274 273 272 272 272 273 272 271
259 259 259 259 258 258 258 258 258 258 258 259 261 263 263 264 266 268 270 273 275 276 277 277 278 278 278 277 276 275 273 273 272 271 270 268 267 268 269 271 273 274 275 276 276 276 276 276 276 276 277 278 279 280 280 280 279 278 279 279 280 280 280 281 280 280 280 280 280 280 279 278 278 276 275 275 275 275 274 273 274 273 273 273 273
258 258 258 258 258 258 258 257 257 258 258 258 259 260 261 262 264 266 267 270 271 273 274 275 275 275 275 275 275 274 273 272 271 271 270 269 268 269 269 270 272 274 275 276 276 276 276 276 277 277 278 278 279 279 280 279 279 279 279 279 280 280 280 280 279 279 279 279 280 280 279 279 278 278 277 276 276 276 276 275 275 275 275 274 274
257 258 258 258 258 258 258 258 257 257 258 259 259 260 261 262 263 264 266 267 268 270 271 272 273 273 273 274 274 275 275 275 273 273 272 271 271 271 270 271 271 272 273 275 275 276 277 277 278 278 279 279 279 280 280 280 280 281 281 280 280 280 280 280 280 280 279 279 279 278 278 278 278 278 278 278 277 277 277 277 277 277 277 276 276
255 257 258 257 258 259 259 260 260 259 259 260 260 261 262 263 264 266 267 268 269 270 271 272 273 274 274 274 275 275 275 275 275 275 274 273 273 272 272 272 272 272 273 273 274 275 276 277 278 278 279 280 280 280 280 281 281 281 281 281 281 280 280 279 279 279 278 278 278 277 277 278 278 278 278 278 278 279 279 279 279 278 278 278 278
252 255 256 257 259 260 261 262 263 263 263 263 264 264 265 266 267 269 270 270 271 271 271 272 273 273 274 274 275 275 274 274 274 275 275 274 275 275 274 274 274 274 275 274 275 275 276 277 278 278 279 280 281 282 282 282 282 282 283 283 283 283 283 282 281 280 280 279 278 278 277 277 278 278 279 279 280 280 280 280 280 280 280 280 280
251 253 255 256 258 259 261 262 263 265 266 267 268 269 269 269 269 270 270 271 272 272 272 272 273 273 273 274 275 275 276 276 276 276 276 276 276 276 276 276 276 277 277 277 277 277 278 279 279 279 279 280 282 283 284 284 284 284 285 285 285 285 285 285 285 284 284 283 282 281 280 279 279 279 279 280 280 281 281 282 282 282 282 282 282
254 255 256 257 258 259 260 261 263 264 266 268 269 270 271 271 272 272 271 272 272 272 273 273 274 274 275 275 276 277 277 278 278 278 278 278 278 278 278 278 278 278 279 280 280 280 280 281 282 282 282 282 282 282 283 284 284 284 285 285 285 286 286 286 286 286 285 285 285 285 284 283 282 282 281 281 281 281 281 282 282 282 283 283 283
256 257 258 259 260 261 261 263 264 265 266 267 268 270 271 272 273 274 275 275 275 275 275 275 276 276 277 277 278 278 278 278 278 278 279 279 279 279 280 280 281 281 281 281 281 282 282 283 284 284 285 285 285 284 284 283 283 283 283 283 283 284 285 286 286 286 286 286 286 286 286 285 285 284 284 283 282 282 282 281 281 282 282 282 282
258 259 259 260 261 263 264 265 266 267 268 269 269 270 271 272 272 273 274 275 277 278 279 279 279 279 279 278 278 278 278 278 278 278 278 278 278 279 279 280 280 281 282 283 283 284 284 285 285 284 284 285 285 284 284 283 283 283 282 282 282 283 283 284 284 284 285 285 285 286 286 285 285 285 285 284 284 283 282 282 282 281 281 281 281
260 261 262 263 263 264 265 267 268 268 269 270 271 271 271 272 272 272 273 273 274 275 277 278 279 279 279 279 278 278 278 278 278 278 278 278 279 279 280 281 281 282 283 284 285 286 287 287 286 285 285 284 284 283 282 282 283 283 283 283 283 283 283 283 283 283 284 284 284 285 285 285 285 284 284 284 283 283 282 282 282 281 281 281 281
262 263 263 265 265 266 266 267 268 269 270 270 271 271 272 272 273 274 274 274 274 274 274 275 276 277 278 278 279 280 280 280 279 279 278 278 279 279 280 281 282 283 284 285 286 287 288 288 287 287 287 287 286 285 284 284 283 283 282 282 283 283 283 283 283 284 284 284 285 285 284 284 284 284 284 284 283 283 283 282 282 281 281 281 280
264 265 266 266 267 267 267 267 268 268 269 270 271 272 273 274 275 276 276 277 277 276 276 276 276 277 278 278 278 279 279 280 280 279 279 280 280 281 281 282 282 283 284 285 286 287 287 287 287 287 287 287 287 286 286 286 285 285 284 284 283 282 282 282 282 282 283 283 284 284 284 284 284 284 283 283 283 283 283 283 282 282 281 281 280
267 268 269 269 269 269 269 270 270 270 271 273 274 275 276 276 277 277 277 277 278 278 278 278 279 280 281 282 282 281 281 281 280 280 280 280 280 281 282 282 283 283 284 285 286 287 287 286 285 285 286 286 285 285 285 285 285 285 285 285 285 285 285 284 284 283 283 282 282 281 282 282 282 282 282 282 282 283 283 283 283 283 282 282 281
269 270 271 271 271 272 272 272 273 274 275 277 278 278 279 279 279 278 278 278 279 280 281 281 281 282 282 283 284 285 284 284 284 284 284 284 283 283 283 282 283 283 283 284 284 285 285 285 285 285 285 285 285 285 285 284 284 284 284 284 284 284 284 285 285 285 285 284 283 282 282 282 281 281 280 281 281 281 281 282 282 283 283 282 282
270 270 271 273 274 275 276 277 278 279 279 280 280 280 280 280 280 279 279 279 280 281 282 282 283 283 284 284 284 284 285 285 286 287 287 287 287 286 286 286 286 286 286 285 284 284 283 284 284 284 285 284 284 285 285 285 284 284 284 284 283 283 283 283 283 284 284 284 284 285 285 284 284 283 283 282 282 281 281 281 281 281 282 282 282
273 272 273 274 276 277 279 280 281 281 282 282 283 282 282 281 281 280 280 281 282 282 283 283 284 285 286 286 286 286 286 287 287 287 287 287 287 287 287 287 287 287 287 287 287 287 286 285 285 285 285 285 284 284 284 284 284 284 284 284 284 284 283 283 282 282 282 282 282 283 284 284 285 285 286 286 285 285 285 284 283 283 283 283 283
278 279 280 280 281 282 283 284 284 284 284 284 284 284 283 283 283 282 283 283 284 284 285 286 287 287 287 287 288 288 288 288 288 288 288 288 288 288 287 288 288 288 287 287 287 287 287 287 287 287 287 286 286 285 283 282 282 282 282 282 282 282 282 282 281 281 281 281 281 281 282 282 283 284 284 285 285 285 286 286 286 285 285 285 284
284 284 285 285 286 286 287 287 287 287 286 286 286 285 285 285 285 285 285 286 286 286 287 287 288 288 288 288 288 288 288 288 288 288 288 288 288 289 289 289 289 289 288 288 287 287 287 287 287 287 286 286 285 284 283 282 282 281 282 282 282 281 281 281 281 282 282 281 281 281 281 282 282 283 283 284 285 285 286 286 286 287 287 287 286
286 286 286 287 287 287 288 288 288 287 287 287 286 286 286 286 287 287 287 288 288 288 288 288 289 289 289 288 288 289 289 289 289 290 290 290 290 290 291 291 290 289 289 289 289 287 287 287 287 286 285 284 283 282 281 281 281 282 282 282 282 281 281 282 282 283 282 282 282 282 282 283 283 284 285 285 286 287 288 289 290 290 290 290 289
288 288 289 289 289 289 289 288 288 288 288 288 288 289 289 289 290 290 290 290 290 290 290 290 290 290 290 290 291 291 290 290 291 291 291 291 291 291 291 291 290 290 290 289 289 288 287 287 287 286 285 284 283 282 282 281 281 282 282 281 281 282 282 282 282 283 283 282 282 282 282 282 283 283 284 285 285 287 288 289 291 292 292 292 290
290 290 291 291 291 291 290 290 290 290 290 291 291 292 292 292 292 292 292 292 291 291 291 292 292 292 291 291 291 291 291 291 291 291 291 291 292 292 292 291 291 290 290 290 289 288 289 289 288 287 287 286 285 284 284 284 284 284 283 282 282 283 283 283 283 282 282 282 282 282 281 281 281 281 281 282 283 284 285 287 288 290 291 290 289
291 291 291 291 291 291 292 292 293 293 294 294 294 294 293 293 293 293 293 293 293 292 292 292 292 292 292 292 292 292 292 292 292 292 292 292 292 292 291 291 291 291 291 291 290 290 290 290 289 289 288 287 286 286 285 286 286 285 284 284 284 284 284 283 283 283 283 283 283 282 282 281 281 280 280 281 281 282 283 284 285 287 288 288 286
292 291 291 292 292 293 293 295 295 295 295 295 294 294 294 294 294 294 294 294 294 293 293 293 294 294 293 293 294 294 294 294 293 293 293 293 293 293 292 292 292 292 292 292 292 292 292 291 291 290 289 288 288 287 287 287 287 286 285 285 285 284 284 284 284 283 283 283 283 283 282 282 281 281 281 281 281 281 282 283 283 285 285 285 284
291 292 292 293 294 294 295 296 296 296 296 295 295 295 295 295 295 295 295 295 295 295 295 295 295 295 295 295 295 295 295 295 294 294 294 294 294 294 293 293 293 293 293 293 292 292 293 292 291 291 290 289 289 288 288 288 288 287 287 287 286 286 286 285 285 284 284 284 283 282 282 282 282 281 281 281 281 281 282 282 283 283 284 284 283
293 294 294 295 296 296 296 296 296 296 296 296 296 297 297 297 297 297 297 297 297 297 296 296 297 297 297 296 296 296 296 296 295 295 295 295 295 294 294 294 293 293 293 292 292 292 293 293 292 292 291 291 290 289 289 289 289 289 288 288 287 287 286 286 285 285 285 284 283 283 282 282 282 282 282 281 282 282 282 283 283 283 284 285 284
Height
5921 5922 5923 5924 5925 5927 5928 5929 5931 5932 5933 5933 5934 5935 5935 5936 5936 5937 5937 5937 5937 5938 5938 5939 5939 5940 5940 5941 5941 5941 5941 5942 5942 5943 5943 5944 5944 5945 5945 5945 5945 5945 5945 5945 5945 5945 5945 5945 5946 5946 5946 5946 5946 5946 5946 5946 5946 5945 5945 5945 5945 5944 5944 5944 5943 5942 5942 5942 5941 5940 5940 5939 5938 5938 5937 5936 5936 5936 5936 5935 5935 5934 5933 5932 5931
5919 5920 5922 5923 5923 5924 5926 5927 5928 5929 5930 5931 5932 5932 5933 5933 5934 5935 5935 5936 5936 5937 5937 5938 5938 5939 5940 5940 5940 5940 5940 5941 5941 5941 5941 5942 5943 5943 5943 5943 5943 5943 5943 5944 5944 5944 5944 5944 5944 5945 5944 5944 5944 5945 5945 5945 5945 5944 5944 5943 5943 5943 5943 5942 5942 5941 5940 5940 5939 5939 5938 5937 5937 5936 5935 5935 5935 5935 5934 5934 5933 5932 5932 5931 5930
5917 5919 5920 5921 5922 5923 5924 5925 5926 5927 5928 5928 5929 5930 5930 5931 5932 5933 5933 5934 5935 5935 5936 5936 5937 5938 5938 5938 5939 5939 5939 5939 5940 5940 5940 5940 5941 5941 5941 5941 5941 5942 5942 5942 5943 5943 5943 5943 5943 5943 5942 5942 5942 5943 5943 5943 5943 5943 5943 5942 5942 5941 5941 5941 5941 5940 5939 5938 5938 5938 5937 5936 5935 5934 5934 5933 5933 5933 5932 5932 5932 5931 5929 5929 5928
5916 5918 5919 5920 5922 5923 5922 5923 5924 5925 5926 5927 5928 5928 5929 5930 5930 5931 5932 5933 5933 5933 5934 5935 5935 5936 5936 5936 5936 5937 5937 5938 5938 5938 5938 5938 5938 5939 5939 5939 5939 5940 5940 5940 5941 5940 5940 5940 5940 5940 5941 5941 5941 5941 5941 5941 5941 5941 5941 5941 5940 5940 5940 5940 5940 5940 5939 5938 5938 5938 5937 5936 5935 5934 5933 5932 5931 5930 5930 5930 5930 5929 5928 5927 5926
5915 5917 5917 5918 5920 5921 5920 5921 5923 5923 5923 5923 5925 5926 5927 5928 5929 5929 5930 5931 5931 5932 5932 5933 5933 5933 5933 5933 5934 5934 5934 5935 5936 5936 5937 5937 5937 5937 5939 5940 5939 5939 5938 5939 5939 5938 5938 5938 5938 5939 5939 5940 5940 5939 5939 5939 5939 5940 5939 5939 5938 5938 5938 5937 5937 5939 5938 5936 5936 5936 5935 5935 5934 5933 5932 5931 5929 5928 5928 5928 5928 5927 5927 5926 5924
5912 5914 5915 5916 5918 5919 5919 5920 5921 5921 5920 5921 5923 5923 5924 5926 5926 5927 5927 5927 5928 5929 5930 5931 5931 5931 5931 5931 5931 5931 5932 5933 5933 5934 5934 5934 5934 5935 5937 5937 5937 5937 5936 5936 5936 5937 5937 5936 5936 5937 5936 5936 5937 5937 5936 5937 5938 5938 5938 5937 5936 5935 5935 5935 5935 5936 5936 5935 5934 5934 5932 5932 5932 5932 5931 5930 5929 5927 5927 5927 5927 5926 5925 5924 5922
5909 5912 5914 5914 5915 5917 5918 5919 5920 5919 5919 5920 5921 5921 5923 5924 5924 5924 5924 5925 5925 5926 5927 5928 5929 5929 5929 5929 5929 5929 5930 5931 5931 5932 5932 5931 5932 5933 5933 5933 5934 5935 5934 5934 5934 5934 5934 5934 5935 5935 5933 5933 5935 5935 5935 5935 5936 5936 5935 5936 5935 5934 5933 5933 5933 5933 5934 5933 5932 5932 5931 5930 5930 5930 5929 5928 5927 5926 5926 5926 5925 5924 5924 5923 5920
5907 5909 5911 5912 5913 5914 5915 5916 5917 5917 5918 5918 5919 5919 5920 5921 5921 5921 5922 5923 5923 5923 5924 5924 5925 5925 5925 5926 5927 5929 5930 5929 5929 5929 5930 5929 5929 5930 5931 5931 5932 5932 5932 5932 5932 5931 5931 5931 5932 5932 5931 5930 5930 5931 5931 5931 5931 5932 5932 5933 5933 5933 5932 5931 5930 5930 5931 5930 5930 5929 5929 5928 5928 5928 5926 5925 5924 5924 5924 5924 5923 5921 5921 5921 5919
5905 5906 5907 5909 5910 5912 5912 5913 5913 5915 5916 5916 5916 5917 5917 5918 5918 5918 5919 5920 5920 5921 5921 5921 5921 5921 5921 5923 5925 5927 5927 5924 5924 5926 5927 5927 5926 5927 5928 5929 5929 5929 5929 5929 5929 5929 5929 5929 5929 5929 5929 5928 5927 5926 5926 5926 5927 5928 5929 5929 5930 5930 5930 5929 5928 5928 5928 5928 5927 5926 5926 5925 5924 5924 5923 5922 5921 5921 5921 5921 5921 5919 5919 5918 5916
5902 5903 5905 5908 5909 5909 5910 5910 5911 5912 5913 5913 5913 5914 5914 5915 5915 5915 5916 5917 5917 5918 5918 5917 5916 5917 5918 5919 5921 5923 5923 5921 5920 5922 5923 5924 5924 5924 5925 5925 5926 5926 5926 5926 5926 5926 5926 5926 5926 5927 5927 5926 5924 5923 5922 5922 5923 5924 5925 5926 5926 5926 5926 5926 5925 5925 5924 5924 5923 5922 5922 5921 5919 5919 5919 5919 5919 5919 5918 5917 5918 5917 5917 5916 5914
5899 5901 5904 5906 5906 5906 5907 5907 5908 5908 5909 5910 5910 5911 5912 5913 5913 5913 5912 5913 5914 5914 5914 5913 5913 5913 5915 5917 5918 5919 5919 5918 5918 5918 5919 5920 5921 5921 5921 5921 5922 5922 5923 5923 5923 5922 5922 5922 5923 5924 5924 5923 5922 5921 5920 5919 5919 5920 5921 5922 5922 5922 5921 5921 5921 5921 5920 5920 5919 5918 5918 5917 5915 5914 5915 5915 5915 5916 5915 5914 5914 5914 5914 5913 5912
5896 5898 5901 5902 5902 5903 5904 5904 5904 5905 5906 5907 5908 5908 5909 5909 5909 5909 5909 5910 5911 5911 5910 5910 5910 5910 5911 5913 5914 5914 5915 5915 5914 5914 5915 5916 5917 5918 5918 5919 5919 5919 5919 5919 5918 5918 5919 5919 5919 5920 5920 5919 5918 5918 5917 5916 5916 5916 5916 5917 5917 5917 5916 5916 5917 5917 5916 5915 5915 5914 5913 5913 5912 5911 5910 5910 5912 5913 5912 5911 5910 5910 5910 5910 5909
5892 5894 5897 5899 5899 5899 5901 5901 5902 5903 5904 5904 5905 5905 5905 5905 5905 5905 5906 5907 5908 5907 5906 5905 5905 5907 5908 5908 5909 5910 5911 5912 5912 5911 5911 5912 5913 5914 5915 5916 5916 5916 5916 5915 5914 5914 5916 5917 5916 5915 5916 5915 5914 5914 5914 5913 5912 5912 5912 5912 5912 5912 5912 5912 5912 5912 5911 5911 5912 5911 5910 5909 5909 5908 5905 5905 5907 5908 5908 5907 5906 5906 5906 5906 5905
5888 5890 5893 5896 5897 5897 5897 5898 5899 5900 5900 5900 5901 5901 5901 5901 5901 5901 5902 5903 5904 5903 5902 5901 5901 5902 5904 5904 5905 5906 5907 5907 5908 5908 5908 5909 5909 5910 5910 5912 5913 5913 5913 5912 5911 5911 5913 5913 5912 5911 5911 5911 5911 5911 5910 5910 5909 5909 5909 5909 5908 5907 5907 5907 5907 5907 5906 5907 5907 5907 5906 5904 5904 5904 5902 5901 5902 5902 5903 5903 5903 5902 5902 5901 5900
5885 5886 5888 5891 5893 5893 5893 5894 5895 5896 5896 5895 5896 5896 5896 5897 5897 5897 5898 5899 5898 5898 5897 5897 5897 5897 5899 5900 5902 5902 5901 5902 5903 5904 5904 5905 5905 5905 5906 5907 5909 5909 5909 5908 5908 5908 5908 5907 5908 5907 5907 5907 5907 5906 5905 5906 5906 5905 5905 5905 5904 5903 5902 5901 5901 5901 5902 5902 5902 5902 5900 5899 5899 5900 5899 5897 5897 5897 5898 5898 5898 5897 5897 5896 5895
5880 5882 5884 5886 5887 5889 5889 5890 5891 5892 5892 5892 5892 5892 5893 5894 5894 5894 5895 5895 5894 5894 5893 5893 5893 5893 5894 5896 5897 5896 5896 5897 5898 5899 5900 5900 5901 5901 5902 5903 5904 5905 5904 5904 5904 5903 5902 5902 5903 5903 5902 5902 5902 5901 5900 5900 5901 5901 5901 5901 5900 5899 5898 5897 5896 5896 5896 5896 5896 5895 5895 5895 5895 5895 5894 5892 5892 5892 5893 5894 5894 5892 5892 5892 5891
5877 5878 5879 5881 5882 5884 5885 5886 5887 5888 5889 5890 5891 5892 5892 5893 5892 5891 5891 5891 5891 5890 5890 5889 5888 5888 5889 5891 5891 5891 5891 5892 5894 5895 5896 5896 5896 5896 5897 5898 5899 5900 5900 5899 5898 5898 5898 5898 5897 5897 5896 5896 5896 5896 5896 5896 5897 5897 5897 5897 5896 5895 5894 5893 5892 5891 5890 5889 5889 5889 5889 5889 5890 5890 5889 5888 5887 5887 5888 5890 5889 5888 5887 5887 5886
5877 5877 5877 5878 5879 5880 5881 5882 5883 5883 5884 5886 5888 5889 5889 5889 5889 5888 5888 5887 5887 5886 5886 5885 5885 5884 5885 5886 5887 5887 5887 5888 5889 5889 5890 5891 5891 5891 5892 5893 5894 5894 5894 5894 5893 5892 5892 5892 5891 5890 5891 5891 5891 5891 5891 5891 5891 5892 5892 5892 5892 5891 5890 5889 5888 5887 5886 5885 5884 5884 5883 5884 5884 5885 5884 5884 5884 5883 5883 5884 5883 5882 5882 5881 5881
5876 5876 5876 5877 5877 5878 5879 5880 5881 5881 5882 5882 5883 5884 5884 5884 5883 5884 5884 5884 5882 5882 5882 5882 5882 5881 5882 5882 5883 5883 5883 5885 5885 5883 5884 5885 5886 5886 5887 5887 5888 5888 5888 5889 5888 5887 5887 5886 5885 5885 5885 5885 5885 5886 5886 5886 5886 5886 5887 5888 5887 5886 5885 5884 5883 5883 5882 5881 5880 5880 5879 5879 5879 5879 5879 5879 5879 5879 5878 5878 5877 5877 5878 5877 5875
5872 5873 5874 5875 5876 5876 5877 5878 5879 5879 5880 5881 5881 5881 5881 5881 5880 5880 5881 5881 5879 5878 5879 5880 5879 5879 5880 5880 5879 5879 5880 5880 5880 5879 5879 5880 5881 5882 5882 5882 5882 5882 5882 5883 5883 5882 5881 5881 5880 5880 5880 5880 5880 5880 5880 5881 5880 5880 5881 5881 5881 5881 5880 5879 5878 5878 5878 5877 5876 5876 5875 5874 5874 5874 5874 5874 5874 5874 5874 5873 5872 5873 5873 5872 5870
5869 5870 5871 5872 5873 5874 5875 5875 5876 5877 5877 5878 5879 5879 5879 5878 5877 5877 5878 5877 5877 5876 5877 5877 5877 5877 5877 5876 5876 5876 5876 5876 5876 5875 5875 5875 5875 5876 5876 5876 5876 5876 5876 5877 5878 5877 5877 5876 5875 5875 5875 5874 5874 5874 5874 5875 5875 5875 5875 5875 5875 5875 5874 5873 5872 5872 5872 5872 5872 5871 5870 5869 5869 5869 5869 5869 5869 5868 5868 5868 5867 5867 5867 5866 5865
5867 5867 5868 5869 5870 5871 5871 5872 5873 5874 5874 5875 5875 5875 5875 5875 5874 5873 5873 5873 5873 5873 5873 5873 5874 5873 5873 5873 5873 5872 5873 5873 5873 5872 5872 5871 5871 5871 5871 5870 5870 5870 5870 5870 5871 5871 5871 5871 5870 5870 5869 5869 5869 5869 5869 5868 5868 5869 5869 5868 5868 5868 5868 5867 5866 5866 5865 5865 5865 5865 5865 5864 5864 5863 5863 5863 5863 5863 5862 5862 5861 5860 5859 5859 5859
5865 5865 5865 5866 5867 5868 5868 5869 5869 5870 5871 5871 5871 5871 5871 5871 5870 5869 5869 5869 5869 5869 5869 5869 5870 5870 5870 5869 5869 5869 5869 5869 5869 5868 5868 5868 5867 5867 5867 5866 5865 5865 5864 5864 5865 5865 5865 5865 5864 5864 5864 5864 5864 5864 5863 5862 5862 5863 5863 5862 5861 5861 5860 5860 5860 5860 5859 5858 5858 5858 5858 5858 5857 5857 5856 5856 5856 5856 5856 5855 5855 5854 5853 5852 5852
5862 5863 5863 5863 5864 5864 5865 5865 5866 5866 5867 5867 5867 5866 5866 5866 5866 5866 5866 5866 5865 5865 5865 5865 5865 5865 5865 5865 5865 5865 5865 5865 5864 5864 5864 5864 5863 5863 5862 5862 5861 5861 5860 5860 5860 5859 5859 5859 5859 5858 5858 5857 5858 5857 5857 5857 5856 5856 5856 5855 5854 5854 5853 5853 5853 5853 5852 5852 5852 5852 5851 5851 5850 5850 5850 5849 5849 5849 5848 5848 5848 5848 5847 5846 5845
5859 5859 5860 5860 5860 5861 5861 5861 5862 5862 5862 5862 5862 5862 5862 5862 5862 5862 5862 5862 5862 5862 5861 5861 5861 5861 5861 5861 5861 5860 5860 5860 5860 5860 5860 5859 5859 5858 5858 5857 5857 5856 5856 5856 5855 5855 5854 5854 5853 5853 5852 5851 5851 5851 5850 5850 5851 5850 5849 5848 5848 5847 5847 5846 5846 5846 5845 5845 5845 5845 5844 5844 5843 5843 5842 5842 5842 5842 5841 5841 5841 5841 5840 5840 5839
5855 5855 5856 5856 5856 5857 5857 5858 5858 5858 5858 5858 5858 5858 5858 5858 5858 5858 5858 5858 5858 5858 5858 5857 5857 5857 5857 5857 5857 5856 5856 5856 5856 5856 5855 5855 5854 5854 5853 5853 5852 5852 5851 5851 5850 5850 5849 5849 5848 5848 5847 5847 5846 5845 5844 5845 5844 5844 5843 5843 5842 5841 5841 5840 5841 5840 5839 5838 5838 5838 5837 5837 5836 5836 5835 5835 5835 5835 5835 5834 5834 5834 5834 5834 5833
5851 5851 5852 5852 5852 5853 5853 5854 5854 5854 5854 5854 5854 5854 5854 5854 5854 5854 5854 5854 5853 5853 5853 5853 5853 5853 5853 5853 5853 5853 5852 5852 5852 5851 5851 5850 5850 5849 5849 5848 5847 5847 5846 5846 5845 5845 5844 5844 5843 5842 5842 5842 5841 5840 5840 5839 5839 5838 5838 5837 5836 5835 5835 5835 5835 5834 5833 5833 5832 5831 5830 5830 5829 5829 5828 5828 5827 5827 5827 5827 5827 5826 5826 5826 5825
5847 5847 5848 5848 5848 5849 5849 5849 5850 5850 5850 5851 5851 5851 5851 5850 5850 5850 5850 5850 5850 5850 5849 5849 5849 5849 5849 5849 5849 5848 5848 5848 5848 5847 5847 5846 5845 5845 5844 5843 5842 5842 5841 5841 5840 5840 5839 5838 5838 5837 5836 5836 5835 5834 5834 5834 5833 5833 5833 5832 5831 5830 5829 5828 5828 5827 5827 5826 5826 5825 5824 5823 5823 5822 5821 5821 5820 5820 5820 5820 5819 5818 5818 5818 5818
5843 5843 5844 5844 5844 5845 5845 5845 5846 5846 5846 5847 5847 5847 5847 5847 5847 5847 5846 5846 5846 5846 5846 5845 5845 5845 5845 5845 5844 5844 5843 5843 5843 5842 5842 5841 5840 5840 5839 5838 5838 5837 5836 5836 5835 5834 5834 5833 5832 5832 5831 5830 5830 5829 5828 5827 5827 5827 5826 5826 5825 5824 5823 5822 5821 5820 5820 5819 5819 5818 5817 5816 5815 5815 5814 5813 5813 5812 5812 5811 5811 5811 5810 5810 5810
5839 5839 5839 5840 5840 5840 5841 5841 5841 5841 5842 5842 5842 5843 5842 5842 5842 5842 5842 5842 5842 5841 5841 5841 5841 5840 5840 5840 5840 5839 5839 5838 5837 5837 5836 5836 5835 5835 5834 5833 5833 5832 5831 5831 5830 5829 5828 5827 5827 5826 5826 5825 5824 5823 5822 5821 5821 5820 5819 5818 5818 5818 5817 5816 5815 5814 5813 5812 5811 5811 5810 5809 5808 5807 5806 5805 5805 5804 5803 5803 5802 5802 5802 5801 5801
5834 5834 5835 5835 5836 5836 5836 5837 5837 5837 5837 5837 5838 5838 5838 5838 5838 5838 5837 5837 5837 5837 5836 5836 5836 5836 5835 5835 5834 5834 5833 5833 5832 5832 5831 5830 5830 5829 5828 5828 5827 5826 5826 5825 5824 5823 5823 5822 5820 5820 5820 5819 5818 5817 5815 5814 5814 5813 5812 5811 5810 5810 5809 5809 5808 5807 5806 5805 5804 5804 5803 5802 5801 5799 5798 5798 5796 5796 5795 5794 5793 5793 5793 5792 5791
5830 5830 5830 5831 5831 5831 5832 5832 5832 5832 5832 5832 5833 5833 5833 5833 5833 5833 5833 5832 5832 5832 5832 5831 5831 5830 5830 5830 5829 5828 5828 5827 5827 5826 5826 5825 5824 5824 5823 5822 5821 5820 5820 5819 5818 5818 5817 5816 5814 5814 5813 5813 5812 5811 5809 5808 5807 5807 5806 5804 5803 5802 5801 5801 5800 5800 5799 5798 5797 5796 5795 5794 5794 5792 5791 5790 5789 5788 5787 5786 5785 5784 5783 5783 5782
5825 5825 5826 5826 5826 5827 5827 5827 5828 5828 5828 5828 5828 5828 5828 5828 5828 5828 5828 5828 5827 5827 5827 5826 5826 5825 5825 5825 5824 5823 5823 5822 5821 5821 5820 5819 5819 5818 5817 5816 5816 5815 5814 5813 5812 5811 5811 5810 5808 5807 5807 5806 5805 5805 5803 5801 5800 5800 5798 5798 5796 5795 5794 5793 5792 5791 5791 5790 5789 5788 5787 5786 5785 5784 5783 5783 5781 5780 5779 5777 5776 5776 5774 5773 5773
5821 5821 5821 5822 5822 5822 5822 5823 5823 5823 5823 5823 5823 5823 5823 5823 5823 5823 5823 5822 5822 5822 5822 5821 5821 5820 5820 5819 5819 5818 5817 5817 5816 5815 5815 5814 5813 5813 5812 5811 5810 5809 5808 5807 5806 5805 5804 5804 5802 5801 5800 5799 5798 5797 5796 5794 5793 5792 5791 5790 5789 5788 5787 5785 5784 5783 5782 5781 5781 5780 5778 5777 5777 5775 5774 5774 5773 5772 5770 5769 5768 5767 5765 5764 5763
5817 5817 5817 5818 5818 5818 5818 5819 5818 5818 5819 5819 5818 5819 5819 5818 5818 5818 5818 5817 5817 5817 5816 5816 5815 5815 5815 5814 5814 5813 5812 5811 5811 5810 5809 5809 5808 5807 5806 5806 5805 5804 5802 5801 5800 5800 5799 5798 5796 5795 5794 5793 5791 5789 5787 5786 5785 5785 5783 5781 5782 5782 5780 5778 5777 5775 5773 5772 5772 5771 5769 5768 5768 5766 5764 5764 5763 5762 5761 5760 5759 5758 5757 5755 5754
5813 5813 5814 5814 5814 5814 5815 5815 5814 5814 5814 5814 5814 5814 5814 5814 5813 5813 5813 5813 5813 5813 5812 5811 5810 5810 5810 5809 5808 5808 5807 5806 5806 5805 5804 5803 5802 5802 5801 5800 5799 5798 5796 5795 5794 5793 5792 5790 5788 5787 5787 5786 5783 5781 5779 5778 5777 5776 5774 5773 5774 5774 5771 5769 5768 5767 5765 5764 5763 5762 5760 5758 5757 5756 5755 5754 5753 5752 5751 5750 5749 5748 5747 5746 5745
5809 5810 5810 5810 5810 5811 5811 5811 5810 5810 5810 5810 5810 5810 5810 5809 5809 5809 5808 5808 5808 5808 5807 5806 5805 5805 5805 5804 5803 5802 5801 5800 5800 5799 5798 5798 5797 5796 5795 5794 5792 5791 5790 5788 5787 5786 5784 5782 5779 5778 5779 5778 5775 5771 5770 5770 5769 5768 5766 5765 5765 5764 5762 5760 5759 5758 5756 5755 5754 5753 5750 5748 5747 5746 5745 5743 5742 5741 5740 5740 5739 5737 5737 5736 5735
5805 5806 5806 5806 5806 5807 5807 5807 5807 5807 5807 5806 5806 5806 5806 5805 5805 5804 5804 5803 5802 5802 5802 5801 5801 5801 5800 5799 5798 5797 5796 5794 5793 5792 5792 5792 5791 5789 5788 5787 5786 5784 5783 5782 5780 5779 5777 5775 5772 5770 5770 5770 5767 5762 5760 5759 5759 5758 5757 5757 5755 5753 5752 5752 5750 5748 5747 5746 5744 5741 5739 5737 5736 5736 5734 5732 5731 5730 5729 5728 5727 5726 5726 5725 5724
5803 5803 5803 5803 5803 5803 5803 5803 5803 5803 5803 5803 5802 5802 5802 5801 5801 5800 5799 5798 5798 5797 5796 5796 5796 5796 5795 5793 5792 5791 5790 5788 5787 5786 5786 5786 5785 5783 5781 5780 5779 5777 5776 5775 5773 5771 5768 5766 5764 5763 5762 5760 5758 5754 5751 5749 5749 5748 5746 5746 5745 5742 5741 5741 5740 5737 5736 5736 5733 5730 5728 5727 5726 5724 5722 5721 5719 5718 5717 5716 5715 5714 5713 5713 5712
5800 5800 5800 5800 5800 5800 5800 5800 5800 5800 5799 5799 5798 5798 5797 5796 5796 5795 5794 5794 5793 5792 5790 5790 5790 5790 5789 5787 5786 5784 5782 5781 5780 5778 5777 5777 5777 5776 5773 5771 5771 5770 5768 5767 5766 5764 5760 5755 5753 5754 5754 5752 5749 5745 5742 5740 5738 5737 5736 5736 5735 5733 5731 5730 5729 5726 5725 5723 5720 5719 5718 5717 5715 5713 5711 5710 5709 5708 5706 5705 5703 5701 5700 5700 5699
5797 5797 5797 5797 5797 5796 5796 5796 5796 5796 5795 5794 5794 5793 5792 5792 5791 5790 5789 5788 5788 5786 5784 5783 5783 5783 5782 5780 5779 5777 5775 5774 5772 5771 5769 5767 5767 5766 5764 5762 5762 5761 5758 5757 5756 5755 5751 5747 5744 5744 5745 5743 5740 5737 5734 5730 5728 5727 5726 5725 5724 5722 5721 5719 5718 5716 5713 5710 5708 5707 5706 5704 5703 5701 5700 5699 5698 5697 5695 5694 5693 5691 5689 5688 5687
5794 5794 5794 5794 5794 5793 5793 5792 5792 5791 5790 5790 5789 5788 5787 5787 5786 5785 5784 5783 5782 5780 5778 5777 5777 5777 5775 5772 5770 5769 5768 5767 5765 5763 5761 5759 5758 5757 5755 5753 5753 5752 5748 5746 5745 5743 5740 5737 5735 5735 5734 5733 5731 5729 5725 5721 5719 5718 5716 5715 5714 5712 5710 5708 5706 5705 5703 5701 5700 5698 5696 5693 5691 5690 5689 5687 5686 5684 5683 5682 5681 5680 5678 5677 5675
5791 5790 5790 5790 5790 5789 5789 5788 5787 5787 5786 5785 5784 5783 5782 5781 5780 5779 5778 5777 5776 5774 5772 5770 5770 5770 5768 5765 5763 5762 5761 5759 5757 5755 5753 5751 5749 5747 5745 5744 5744 5741 5738 5737 5736 5733 5729 5727 5726 5724 5723 5721 5720 5718 5715 5712 5710 5708 5707 5706 5705 5703 5699 5697 5695 5694 5694 5693 5692 5690 5687 5685 5683 5682 5680 5678 5676 5674 5673 5671 5670 5669 5668 5666 5664
5787 5787 5787 5786 5786 5785 5785 5784 5783 5782 5781 5780 5779 5778 5777 5776 5774 5774 5773 5771 5770 5768 5766 5764 5763 5762 5761 5758 5756 5754 5753 5751 5749 5746 5744 5742 5740 5738 5736 5735 5733 5730 5726 5726 5726 5723 5719 5718 5717 5715 5712 5711 5709 5707 5704 5701 5700 5699 5698 5697 5695 5692 5689 5687 5685 5684 5684 5683 5682 5680 5678 5677 5675 5674 5672 5670 5668 5666 5664 5662 5660 5659 5658 5656 5654
5784 5784 5783 5783 5782 5781 5781 5780 5778 5777 5776 5775 5774 5772 5771 5770 5769 5768 5767 5766 5763 5761 5759 5758 5756 5755 5753 5751 5748 5746 5744 5742 5740 5738 5735 5733 5731 5728 5726 5724 5722 5719 5717 5716 5715 5712 5709 5708 5707 5705 5703 5701 5699 5696 5694 5691 5690 5690 5689 5687 5683 5681 5680 5678 5676 5674 5673 5672 5672 5670 5668 5667 5665 5664 5662 5661 5660 5658 5656 5654 5652 5650 5648 5647 5645
5781 5780 5779 5778 5778 5777 5776 5775 5774 5772 5771 5769 5768 5767 5766 5764 5763 5762 5761 5759 5757 5754 5752 5750 5748 5747 5745 5742 5740 5738 5736 5734 5731 5729 5726 5724 5721 5719 5717 5714 5711 5709 5708 5706 5703 5701 5700 5699 5697 5695 5693 5690 5688 5686 5684 5682 5681 5682 5680 5677 5673 5671 5670 5669 5667 5665 5663 5662 5661 5660 5659 5657 5656 5654 5652 5651 5650 5648 5647 5645 5643 5641 5640 5638 5636
5776 5775 5775 5774 5773 5771 5771 5770 5768 5767 5766 5764 5763 5762 5760 5758 5757 5755 5754 5752 5750 5747 5745 5743 5741 5739 5737 5735 5732 5729 5727 5725 5722 5719 5718 5716 5713 5711 5708 5704 5701 5699 5698 5696 5693 5691 5691 5690 5687 5685 5683 5681 5678 5676 5673 5672 5672 5672 5669 5666 5664 5662 5661 5659 5657 5656 5654 5652 5651 5651 5649 5648 5646 5645 5643 5642 5641 5639 5638 5636 5634 5633 5631 5630 5628
5772 5771 5770 5769 5768 5766 5765 5764 5763 5762 5760 5759 5757 5756 5754 5752 5750 5749 5747 5745 5742 5740 5738 5736 5733 5731 5728 5726 5724 5721 5719 5716 5713 5711 5709 5707 5705 5702 5700 5696 5692 5690 5688 5686 5682 5681 5681 5680 5677 5675 5673 5671 5668 5666 5664 5663 5663 5661 5657 5655 5654 5653 5650 5648 5647 5645 5643 5642 5641 5640 5639 5638 5636 5635 5634 5633 5632 5630 5629 5627 5626 5624 5623 5622 5620
5767 5766 5764 5763 5763 5761 5760 5758 5757 5756 5754 5753 5751 5750 5748 5746 5744 5742 5740 5738 5735 5732 5730 5728 5726 5723 5719 5717 5715 5713 5710 5707 5704 5702 5700 5698 5695 5693 5691 5688 5684 5681 5679 5676 5672 5670 5669 5669 5667 5665 5662 5660 5658 5656 5654 5654 5652 5649 5647 5645 5644 5642 5640 5638 5636 5634 5633 5632 5631 5630 5628 5627 5626 5625 5624 5623 5622 5621 5620 5619 5617 5616 5615 5614 5613
5762 5760 5759 5758 5757 5756 5754 5753 5751 5750 5748 5746 5744 5743 5741 5739 5737 5735 5732 5730 5728 5725 5722 5720 5718 5715 5711 5709 5707 5705 5702 5698 5695 5693 5691 5689 5686 5683 5681 5678 5676 5673 5671 5668 5664 5661 5659 5658 5656 5654 5652 5650 5647 5645 5645 5643 5640 5637 5636 5634 5633 5630 5629 5627 5625 5624 5623 5622 5621 5619 5618 5617 5617 5616 5615 5614 5613 5612 5611 5610 5609 5608 5607 5606 5605
5757 5755 5753 5752 5751 5749 5748 5747 5745 5744 5742 5740 5738 5736 5734 5732 5730 5727 5725 5722 5720 5717 5714 5712 5710 5707 5703 5700 5698 5696 5694 5690 5687 5684 5681 5679 5677 5675 5672 5670 5667 5665 5662 5660 5657 5654 5651 5648 5646 5643 5641 5639 5636 5635 5634 5633 5630 5627 5625 5623 5622 5620 5619 5617 5616 5614 5613 5612 5611 5610 5609 5608 5608 5607 5606 5606 5605 5604 5604 5603 5601 5600 5599 5598 5597